Brookings, OR

4:52 AM PDT on September 21, 2017 (GMT -0700)
Brookings State

Weather History for KBOK - January, 2014

Change the Weather History Date:

Wednesday, January 15, 2014

  Actual Average Record
Temperature  
Mean Temperature 56 °F -  
Max Temperature 68 °F 55 °F 68 °F (2014)
Min Temperature 43 °F 43 °F 29 °F (2007)
Degree Days  
Heating Degree Days 10    
Growing Degree Days 6 (Base 50)    
Moisture  
Dew Point 38 °F    
Average Humidity 58    
Maximum Humidity 77    
Minimum Humidity 34    
Precipitation  
Precipitation 0.00 in - - ()
Sea Level Pressure  
Sea Level Pressure 30.35 in    
Wind  
Wind Speed 1 mph (ESE)    
Max Wind Speed 5 mph    
Max Gust Speed -    
Visibility 9 miles    
Events      
Averages and records for this station are not official NWS values.
T = Trace of Precipitation, MM = Missing Value Source: NWS Daily Summary

Daily Weather History Graph

Daily Weather History Graph

Search for Another Location

Airport or City:

Trip Planner

Search our weather history database for the weather conditions in past years. The results will help you decide how hot, cold, wet, or windy it might be!

Date:

Astronomy

Jan. 15, 2014 Rise Set
Actual Time 7:42 AM PST 5:10 PM PST
Civil Twilight 7:11 AM PST 5:41 PM PST
Nautical Twilight 6:37 AM PST 6:16 PM PST
Astronomical Twilight 6:03 AM PST 6:49 PM PST
Moon 5:14 PM PST (1/15) 7:01 AM PST (1/15)
Length of Visible Light 10h 29m
Length of Day
9h 28m
Full, 100% of the Moon is Illuminated
Jan 15
Full
Jan 15
Full
Jan 23
Last Quarter
Jan 30
New
Feb 6
First Quarter

Hourly Weather History & Observations

Time (PST) Temp. Windchill Dew Point Humidity Pressure Visibility Wind Dir Wind Speed Gust Speed Precip Events Conditions
12:56 AM 45.0 °F 42.6 °F 36.9 °F 73% 30.39 in 10.0 mi SSE 4.6 mph - N/A   Clear
1:56 AM 45.0 °F - 32.9 °F 63% 30.39 in 10.0 mi Calm Calm - N/A   Clear
2:56 AM 46.9 °F - 34.0 °F 61% 30.39 in 10.0 mi Calm Calm - N/A   Clear
3:56 AM 43.9 °F - 34.0 °F 68% 30.39 in 10.0 mi Calm Calm - N/A   Clear
4:56 AM 45.0 °F - 36.0 °F 71% 30.40 in 10.0 mi Calm Calm - N/A   Clear
5:56 AM 45.9 °F 44.6 °F 32.0 °F 58% 30.40 in 10.0 mi NE 3.5 mph - N/A   Clear
6:56 AM 43.9 °F 42.3 °F 32.0 °F 63% 30.39 in 10.0 mi East 3.5 mph - N/A   Clear
7:56 AM 43.0 °F - 32.9 °F 68% 30.39 in 10.0 mi Calm Calm - N/A   Clear
8:56 AM 45.9 °F - 34.9 °F 66% 30.40 in 10.0 mi Calm Calm - N/A   Clear
9:56 AM 52.0 °F - 37.9 °F 59% 30.41 in 10.0 mi Calm Calm - N/A   Clear
10:56 AM 63.0 °F - 41.9 °F 46% 30.41 in 10.0 mi SSE 3.5 mph - N/A   Clear
11:56 AM 66.9 °F - 37.9 °F 34% 30.38 in 10.0 mi Calm Calm - N/A   Clear
12:56 PM 64.9 °F - 41.0 °F 42% 30.35 in 7.0 mi Calm Calm - N/A   Clear
1:56 PM 68.0 °F - 43.0 °F 40% 30.32 in 7.0 mi Calm Calm - N/A   Clear
2:56 PM 68.9 °F - 43.9 °F 40% 30.31 in 7.0 mi Calm Calm - N/A   Clear
3:56 PM 65.8 °F - 41.9 °F 42% 30.32 in 6.0 mi Calm Calm - N/A   Haze
4:56 PM 61.0 °F - 48.9 °F 64% 30.30 in 7.0 mi Calm Calm - N/A   Clear
5:56 PM 54.9 °F - 47.8 °F 77% 30.30 in 10.0 mi Calm Calm - N/A   Clear
6:56 PM 54.9 °F - 38.8 °F 55% 30.29 in 10.0 mi Calm Calm - N/A   Clear
7:56 PM 52.9 °F - 38.8 °F 59% 30.30 in 10.0 mi Variable 3.5 mph - N/A   Clear
8:56 PM 50.0 °F - 38.8 °F 66% 30.30 in 10.0 mi Calm Calm - N/A   Clear
9:56 PM 50.0 °F - 36.0 °F 59% 30.30 in 10.0 mi Variable 3.5 mph - N/A   Clear
10:56 PM 48.9 °F - 34.0 °F 56% 30.30 in 10.0 mi Calm Calm - N/A   Clear
11:56 PM 46.9 °F - 36.0 °F 66% 30.29 in 10.0 mi Calm Calm - N/A   Clear